Regional Weather Roundup
Issued by NWS Sterling, VA

Home | Current Version | Previous Version | Graphics & Text | Print | Product List | Glossary On
Versions: 1 2 3 4 5 6 7 8 9 10 11 12 13 14 15 16 17 18 19 20 21 22 23 24 25 26 27 28 29 30 31 32 33 34 35 36 37 38 39 40 41 42 43 44 45 46 47 48 49 50
000
ASUS41 KLWX 011610
RWRLWX

REGIONAL WEATHER ROUNDUP
NATIONAL WEATHER SERVICE BALTIMORE MD/WASHINGTON DC
1200 PM EDT WED JUL 01 2015

Note: "FAIR" indicates few or no clouds below 12,000 feet
with no significant weather and/or obstructions to visibility.
 TC=TEMPERATURE CELSIUS

 * =Non NWS site. Station does not report precipitation (e.g. rain,
    snow, etc.), thunder, or fog.

DCZ001-MDZ009-015-VAZ040>042-051-053>054-011700-
WASHINGTON METRO

CITY           SKY/WX    TMP DP  RH WIND       PRES   REMARKS
WASHINGTON NAT MOSUNNY   81  68  64 S8        29.88R
DULLES         MOSUNNY   80  64  58 SW9       29.88R
ANDREWS AFB    SUNNY     80  69  67 SW12      29.87R
FT BELVOIR     SUNNY     81  69  67 S8        29.88R
QUANTICO       MOSUNNY   79  70  74 S9        29.89R
COLLEGE PARK*  SUNNY     81  63  54 SW5       29.86S
LEESBURG*      MOSUNNY   81  64  57 W8        29.89R
MANASSAS*      SUNNY     81  64  57 SW9       29.88R
GAITHERSBURG*  SUNNY     79  64  61 W10       29.92R

$$

MDZ006>007-011-014-011700-
BALTIMORE METRO

CITY           SKY/WX    TMP DP  RH WIND       PRES   REMARKS
BWI AIRPORT    MOSUNNY   80  64  58 W9        29.85R
MD SCIENCE CTR   N/A     82  63  52 MISG      29.87R
MARTIN STATE   SUNNY     81  68  65 SW10G16   29.87R
ANNAPOLIS      SUNNY     80  64  58 VRB5      29.86R
FORT MEADE*    SUNNY     79  66  65 W5        29.89R

$$

MDZ012-015-019>023-011700-
MARYLAND EASTERN SHORE

CITY           SKY/WX    TMP DP  RH WIND       PRES   REMARKS
OCEAN CITY     MOSUNNY   81  68  64 W10G16    29.87S
SALISBURY      SUNNY     81  69  67 SW6       29.87S
BAY BRIDGE AP*   N/A     79  64  61 SW7       29.87S
CAMBRIDGE*       N/A     81  66  61 SW7       29.88R
EASTON*        MOSUNNY   82  68  61 W7        29.91R

$$

MDZ017>025-011700-
SOUTHERN MARYLAND

CITY           SKY/WX    TMP DP  RH WIND       PRES   REMARKS
PATUXENT RIVER SUNNY     80  67  64 SW7       29.88R
ST INIGOES     SUNNY     79  70  74 S5        29.88R
LEONARDTOWN*   SUNNY     79  63  57 S6        29.90S

$$

MDZ003>005-011700-
NORTH CENTRAL MARYLAND

CITY           SKY/WX    TMP DP  RH WIND       PRES   REMARKS
FREDERICK*     SUNNY     81  70  69 W10       29.90R
HAGERSTOWN APT PTSUNNY   76  60  57 W13       29.88R
WESTMINSTER*   SUNNY     77  64  65 W10G17    29.88R

$$

MDZ501>502-011700-
WESTERN MARYLAND

CITY           SKY/WX    TMP DP  RH WIND       PRES   REMARKS
OAKLAND*       CLOUDY    61 N/A N/A SW6G20    29.99R HAZE
CUMBERLAND*    MOSUNNY   79  61  53 CALM      29.92S

$$

VAZ025>031-011700-
SHENANDOAH VALLEY

CITY           SKY/WX    TMP DP  RH WIND       PRES   REMARKS
WINCHESTER*    CLOUDY    79  63  57 SW5       29.89R
FRONT ROYAL*   FAIR      79  64  61 SW6       29.88S
LURAY*         FAIR      81  64  57 S8        29.91R
NEW MARKET*    FAIR      79  64  60 S6        29.89S
STAUNTON*      SUNNY     80  62  53 SW12G17   29.95S
WAYNESBORO*    FAIR      75  62  63 SW7       29.96R

$$

WVZ021-048>050-054>055-011700-
EASTERN WEST VIRGINIA PANHANDLE

CITY           SKY/WX    TMP DP  RH WIND       PRES   REMARKS
MARTINSBURG    MOSUNNY   79  62  56 W15       29.89R
PETERSBURG*    MOSUNNY   80  56  44 W16G23    29.91S

$$

VAZ036>039-050-011700-
CENTRAL FOOTHILLS

CITY           SKY/WX    TMP DP  RH WIND       PRES   REMARKS
CHARLOTTESVILL SUNNY     80  62  54 SW8       29.91S
CULPEPER*      SUNNY     80  64  59 S7        29.90R
ORANGE*        SUNNY     81  63  54 SW8       29.92S
GORDONSVILLE*  FAIR      79  63  57 SW9       29.91R
WARRENTON*     FAIR      82  69  64 S9        29.89R

$$

VAZ055>057-011700-
NORTH AND CENTRAL PIEDMONT

CITY           SKY/WX    TMP DP  RH WIND       PRES   REMARKS
FREDERICKSBRG* SUNNY     83  68  61 SW9       29.89R
STAFFORD*      SUNNY     80  67  63 SW3       29.94R

$$

NCZ024-NYZ072-PAZ021-071-VAZ022-071-011700-
OTHER REGIONAL OBSERVATIONS

CITY           SKY/WX    TMP DP  RH WIND       PRES   REMARKS
NEW YORK CITY  PTSUNNY   77  63  61 VRB6      29.82S
PHILADELPHIA   MOSUNNY   80  63  55 SW12      29.83S
PITTSBURGH     CLOUDY    67  60  78 W9        29.92R
ROANOKE        MOSUNNY   78  63  59 W10       29.98F
RICHMOND       PTSUNNY   83  63  50 W9        29.91S
RALEIGH        CLOUDY    82  69  64 SW6       29.98R

$$

ANZ530>537-011700-
MARINE OBSERVATIONS

STATION/POSITION TIME  TEMP    WIND        PRES
                       AIR SEA DIR/SP/G
                 (UTC) (F)     (DEG/KT/KT) (MB)
THOMAS PT LIGHT  1600   75                 1011.9R
BALT KEY BRIDGE  1500   76     240/  7/  9 1010.4R
COVE POINT       1500   73     160/  7/  8 1012.3R
LEWISETTA        1500   77 80  210/  4/  6 1011.5R
SOLOMONS ISLAND  1500      79                N/A
PINEY POINT      1500          200/  2/  2   N/A

$$




USA.gov is the U.S. government's official web portal to all federal, state and local government web resources and services.